EB2GLU-13 Weather Reports


time (UTC)temp
C
wind
direction
speed
KPH
gust
KPH
rain 1hr
cm
rain 24hr
cm
rain mn
cm
humidity
%
barometer
mb
20260503235457 14 158 0.0 1.6 0.00 0.18 0.00 94 1012.0
20260503234227 14 0 0.0 0.0 0.00 0.18 0.00 94 1012.2
20260503232957 13 158 0.0 4.8 0.00 0.18 0.00 93 1012.0
20260503231727 13 158 0.0 1.6 0.00 0.18 0.00 94 1012.2
20260503230457 13 158 0.0 1.6 0.00 0.18 0.00 94 1012.1
20260503225227 13 0 0.0 0.0 0.00 0.18 0.00 94 1011.8
20260503223957 14 0 0.0 0.0 0.00 0.18 0.00 94 1011.5
20260503222727 13 0 0.0 0.0 0.00 0.18 0.00 94 1011.2
20260503221457 13 158 0.0 3.2 0.00 0.18 0.00 94 1011.4
20260503220227 14 0 0.0 0.0 0.00 0.18 0.00 94 1011.7
20260503214957 13 158 0.0 1.6 0.00 0.18 0.18 94 1011.8
20260503213727 14 158 0.0 1.6 0.00 0.18 0.18 93 1011.4
20260503212456 13 0 0.0 0.0 0.00 0.18 0.18 93 1011.4
20260503211217 13 158 0.0 1.6 0.00 0.18 0.18 93 1011.5
20260503205946 14 158 0.0 1.6 0.00 0.18 0.18 93 1011.7
20260503204716 14 158 0.0 1.6 0.00 0.18 0.18 93 1011.7
20260503203446 14 158 0.0 3.2 0.03 0.18 0.18 93 1011.6
20260503202216 15 0 0.0 0.0 0.03 0.18 0.18 92 1011.6
20260503195716 15 158 0.0 1.6 0.03 0.18 0.18 92 1011.2
20260503194446 15 158 0.0 4.8 0.03 0.18 0.18 91 1010.9
20260503193216 15 0 0.0 0.0 0.00 0.13 0.13 90 1011.1
20260503191946 16 0 0.0 0.0 0.03 0.13 0.13 90 1010.9
20260503190716 16 158 0.0 1.6 0.03 0.13 0.13 90 1010.8
20260503185446 16 158 0.0 3.2 0.03 0.13 0.13 90 1010.6
20260503184216 16 158 0.0 3.2 0.03 0.13 0.13 88 1010.4
20260503182946 17 158 0.0 3.2 0.00 0.10 0.10 85 1010.3
20260503181716 18 158 0.0 1.6 0.00 0.10 0.10 84 1010.5
20260503180446 18 158 0.0 1.6 0.00 0.13 0.10 81 1010.1
20260503175216 18 158 0.0 1.6 0.00 0.13 0.10 78 1010.0
20260503173946 19 158 0.0 1.6 0.00 0.13 0.10 78 1009.8
20260503172716 20 158 0.0 3.2 0.00 0.13 0.10 75 1010.0
20260503171446 20 158 0.0 1.6 0.00 0.18 0.10 74 1010.1
20260503170216 21 158 0.0 3.2 0.00 0.20 0.10 67 1009.7
20260503150946 21 203 0.0 4.8 0.00 0.38 0.10 76 1010.7
20260503130446 17 203 1.6 4.8 0.08 0.36 0.08 84 1012.3
20260503120215 20 167 4.8 9.7 0.00 0.30 0.00 68 1012.2
20260503080445 18 68 0.0 1.6 0.00 0.30 0.00 82 1012.8
20260503072715 16 0 0.0 0.0 0.00 0.30 0.00 86 1012.9
20260503071445 15 68 0.0 1.6 0.00 0.30 0.00 88 1012.9
20260503070215 15 68 0.0 1.6 0.00 0.30 0.00 88 1013.0
20260503054715 12 68 0.0 1.6 0.00 0.30 0.00 93 1012.8
20260503053445 12 68 0.0 1.6 0.00 0.30 0.00 94 1012.6
20260503052214 12 69 0.0 3.2 0.00 0.30 0.00 93 1012.8
20260503050944 12 69 0.0 3.2 0.00 0.30 0.00 93 1012.6
20260503045715 12 69 0.0 1.6 0.00 0.30 0.00 93 1012.6
20260503044444 12 68 0.0 3.2 0.00 0.30 0.00 93 1012.4
20260503043215 12 68 0.0 3.2 0.00 0.30 0.00 92 1012.4
20260503035444 13 69 0.0 1.6 0.00 0.30 0.00 91 1012.5
20260503034214 13 69 0.0 3.2 0.00 0.30 0.00 90 1012.5
20260503032944 13 68 0.0 4.8 0.00 0.30 0.00 89 1012.4
20260503031714 14 69 0.0 4.8 0.00 0.30 0.00 86 1012.4
20260503030444 14 82 1.6 6.4 0.00 0.30 0.00 87 1012.3
20260503025214 13 80 0.0 4.8 0.00 0.30 0.00 92 1012.7
20260503023944 13 30 0.0 6.4 0.00 0.30 0.00 93 1012.8
20260503022714 13 26 0.0 4.8 0.00 0.30 0.00 93 1012.8
20260503021444 13 158 3.2 4.8 0.00 0.30 0.00 93 1013.1
20260503020214 13 157 0.0 4.8 0.00 0.30 0.00 93 1013.1
20260503014944 13 159 0.0 6.4 0.00 0.30 0.00 93 1013.2
20260503013714 13 158 0.0 3.2 0.00 0.30 0.00 93 1013.2
20260503012444 13 158 0.0 3.2 0.00 0.30 0.00 94 1013.0
20260503011214 13 158 0.0 3.2 0.00 0.30 0.00 94 1013.2
20260503005945 13 158 0.0 1.6 0.00 0.30 0.00 94 1013.3
20260503004714 13 158 0.0 3.2 0.00 0.30 0.00 94 1013.4
20260503003444 13 158 0.0 4.8 0.00 0.30 0.00 94 1013.8
20260503002214 13 158 0.0 1.6 0.00 0.30 0.00 94 1013.8
20260503000944 13 157 0.0 4.8 0.00 0.30 0.00 93 1013.7